STARLINK-11142, 59957

Orbit data source: Space-Track

STARLINK-11142, 59957 is a payload satellite owned by SpaceX/Seattle (US) in LEO that was launched on Wed, 05 Jun 2024 UTC via an FALCON 9 launch vehicle from the Air Force Eastern Test Range (AFETR). Payload-class satellites include a variety of spacecraft equipped with specific instruments for various scientific and technological missions. These include communications satellites like Starlink; space stations such as the ISS; scientific satellites like the Hubble; Earth observation satellites from companies like Planet Labs, Umbra, and HawkEye 360; GPS; miniature CubeSats for education and research; and military/defense satellites.

Loading next visibility...
Identifier
59957, 2024-107N
Orbit
LEO
Last TLE update
14 hours ago
Origin
Manufacturer
SpaceX/Seattle
Mission
Operational spacecraft
Bus & Motor
STARLINK V2M, Unknown motor
Mass
730 kg wet, ~700 kg dry
Launch date (UTC)
2024-06-05 (11 months ago)
Launch vehicle
FALCON 9
Launch site
Air Force Eastern Test Range (AFETR)
Object type
Payload
Rocket body
Debris
Shape & HBR
Unknown
Radar Cross Section
Large (>1 m²)

Expand to show TLE details & history

TLE from 14 hours ago
0 STARLINK-11142
1 59957U 24107N   25128.79917766  .00003049  00000-0  29989-4 0  9996
2 59957  53.1589 313.9536 0000495  38.1660 321.9393 15.69722767 54270
Epoch: 2025-05-08T19:10Z
Definitive object data (Epoch: 2025-05-08T19:10:48.949Z)
Latitude
-0.00003°
Longitude
159.38513°
Altitude
360.343 km
Speed
7.694 km/s
True Right ascension
20h 55m 48s
True Declination
0° 00' 00"
Sunlit
Object was in daylight at TLE epoch
Visualization TLE readout
Latitude
49.34862°
Longitude
-83.72158°
Altitude
365.213 km
Speed
7.696 km/s
Apparent Right ascension
05h 09m 31s
Apparent Declination
6° 18' 32"
Sunlit
Object is in daylight
Visualization observer readout
Local Sidereal Time
17:32:59
Azimuth
8.048° NNE
Elevation
-43.459°
Doppler factor
1
Orbital elements
Apogee altitude
360.285 km
Perigee altitude
359.618 km
Semi-major axis
6,738.088 km
Eccentricity
0.0000495
Inclination
53.1589°
RAAN
313.9536°
Arg. of periapsis
38.166°
True anomaly
321.9358°
Mean anomaly
321.9393°
Eccentric anomaly
321.93755°
Mean motion
3.92408 °/min
BSTAR
0.000029989
Orbital period
91.74 mins
Loading maneuver chart data...
Loading SW <> Apogee altitude chart data...
Loading historical data...
Loading historical data...
Loading historical data...
Loading historical data...
Loading historical data...
Loading historical data...
Loading historical data...

STARLINK-11142 Visibility forecast

Observer location: undefined°, undefined°

Span
Click to sort rows by Start time (UTC) header in descending order
Start Az.
Max El. time (UTC)
Max El. Az.
Max El.
End time (UTC)
End Az.
4 mins2025-05-09 15:14:40.595Z242.432° WSW2025-05-09 15:16:40.595Z317.208° NNW41.812°2025-05-09 15:18:40.595Z40.609° NE
4 mins2025-05-09 21:39:40.595Z315.635° NNW2025-05-09 21:41:40.595Z89.505° E42.961°2025-05-09 21:43:40.595Z124.646° SE
|